Location: Bergnershof
(48.9468°N, 10.9431°E)
Time: 01:42:24
(UTC+00:00)

SL-16 R/B - Pass Details

Date: 03 March 2021
Orbit: 843 x 845 km, 71.0° (Epoch: 16 April)

Event Time Altitude Azimuth Distance (km) Brightness Sun altitude
Rises 17:47:06 0° 200° (SSW) 3,388 5.6 -8.0°
Reaches altitude 10° 17:49:32 10° 198° (SSW) 2,458 4.9 -8.4°
Maximum altitude 17:55:09 74° 115° (ESE) 882 2.2 -9.4°
Drops below altitude 10° 18:00:49 10° 31° (NNE) 2,477 4.4 -10.3°
Sets 18:03:17 0° 30° (NNE) 3,416 5.1 -10.7°
